| time (UTC) | temp F | wind direction | speed MPH | gust MPH | rain 1hr in | rain 24hr in | rain mn in | humidity % | barometer mb |
| 20260906200105 | 77 | 79 | 3.0 | 13.0 | 0.00 | 0.34 | 0.00 | 68 | 1017.2 |
| 20260906194606 | 78 | 38 | 2.0 | 14.0 | 0.00 | 0.34 | 0.00 | 69 | 1017.2 |
| 20260906193058 | 77 | 53 | 4.0 | 14.0 | 0.00 | 0.34 | 0.00 | 65 | 1017.2 |
| 20260906191601 | 77 | 28 | 4.0 | 11.0 | 0.00 | 0.34 | 0.00 | 67 | 1017.3 |
| 20260906190113 | 78 | 51 | 4.0 | 12.0 | 0.00 | 0.34 | 0.00 | 63 | 1017.3 |
| 20260906184556 | 77 | 61 | 5.0 | 12.0 | 0.00 | 0.34 | 0.00 | 69 | 1017.4 |
| 20260906183110 | 77 | 45 | 4.0 | 12.0 | 0.00 | 0.34 | 0.00 | 67 | 1017.2 |
| 20260906181559 | 77 | 46 | 3.0 | 10.0 | 0.00 | 0.34 | 0.00 | 71 | 1017.3 |
| 20260906180112 | 77 | 45 | 3.0 | 11.0 | 0.00 | 0.34 | 0.00 | 68 | 1017.4 |
| 20260906174602 | 77 | 47 | 3.0 | 10.0 | 0.00 | 0.34 | 0.00 | 65 | 1017.5 |
| 20260906173117 | 77 | 46 | 4.0 | 9.0 | 0.00 | 0.34 | 0.00 | 69 | 1017.8 |
| 20260906171601 | 76 | 71 | 5.0 | 14.0 | 0.00 | 0.34 | 0.00 | 69 | 1017.7 |
| 20260906170125 | 76 | 59 | 2.0 | 11.0 | 0.00 | 0.34 | 0.00 | 75 | 1017.8 |
| 20260906164606 | 75 | 57 | 5.0 | 14.0 | 0.00 | 0.34 | 0.00 | 72 | 1017.9 |
| 20260906163108 | 76 | 65 | 1.0 | 10.0 | 0.00 | 0.34 | 0.00 | 77 | 1017.9 |
| 20260906161558 | 75 | 58 | 6.0 | 12.0 | 0.00 | 0.34 | 0.00 | 72 | 1017.9 |
| 20260906160059 | 74 | 38 | 6.0 | 13.0 | 0.00 | 0.34 | 0.00 | 72 | 1018.1 |
| 20260906154602 | 74 | 46 | 3.0 | 12.0 | 0.00 | 0.34 | 0.00 | 75 | 1018.2 |
| 20260906153059 | 74 | 30 | 4.0 | 11.0 | 0.00 | 0.34 | 0.00 | 76 | 1018.1 |
| 20260906151612 | 73 | 42 | 4.0 | 10.0 | 0.00 | 0.34 | 0.00 | 78 | 1018.3 |
| 20260906150104 | 72 | 49 | 6.0 | 12.0 | 0.00 | 0.34 | 0.00 | 78 | 1018.1 |
| 20260906144600 | 72 | 323 | 3.0 | 10.0 | 0.00 | 0.34 | 0.00 | 82 | 1018.0 |
| 20260906143129 | 71 | 55 | 3.0 | 10.0 | 0.00 | 0.34 | 0.00 | 82 | 1018.1 |
| 20260906141559 | 70 | 73 | 2.0 | 11.0 | 0.00 | 0.34 | 0.00 | 83 | 1018.0 |
| 20260906140059 | 70 | 45 | 6.0 | 12.0 | 0.00 | 0.34 | 0.00 | 82 | 1018.0 |
| 20260906134612 | 69 | 58 | 2.0 | 9.0 | 0.00 | 0.34 | 0.00 | 85 | 1018.0 |
| 20260906133108 | 69 | 63 | 3.0 | 11.0 | 0.00 | 0.34 | 0.00 | 86 | 1017.8 |
| 20260906131600 | 67 | 40 | 2.0 | 8.0 | 0.00 | 0.34 | 0.00 | 89 | 1017.8 |
| 20260906130057 | 67 | 37 | 2.0 | 8.0 | 0.00 | 0.34 | 0.00 | 89 | 1017.8 |
| 20260906124602 | 67 | 38 | 3.0 | 8.0 | 0.00 | 0.34 | 0.00 | 89 | 1017.5 |
| 20260906123136 | 66 | 44 | 3.0 | 9.0 | 0.00 | 0.34 | 0.00 | 90 | 1017.2 |
| 20260906121558 | 65 | 48 | 3.0 | 8.0 | 0.00 | 0.34 | 0.00 | 91 | 1017.0 |
| 20260906120055 | 65 | 67 | 1.0 | 6.0 | 0.00 | 0.34 | 0.00 | 91 | 1016.7 |
| 20260906114610 | 65 | 45 | 1.0 | 5.0 | 0.00 | 0.34 | 0.00 | 90 | 1016.6 |
| 20260906113104 | 65 | 55 | 1.0 | 9.0 | 0.00 | 0.34 | 0.00 | 90 | 1016.4 |
| 20260906111601 | 65 | 90 | 2.0 | 6.0 | 0.00 | 0.34 | 0.00 | 90 | 1016.2 |
| 20260906110105 | 65 | 73 | 2.0 | 9.0 | 0.00 | 0.34 | 0.00 | 89 | 1016.1 |
| 20260906104601 | 65 | 55 | 3.0 | 7.0 | 0.00 | 0.34 | 0.00 | 89 | 1016.0 |
| 20260906103059 | 65 | 78 | 2.0 | 8.0 | 0.00 | 0.34 | 0.00 | 89 | 1015.9 |
| 20260906101603 | 65 | 36 | 2.0 | 6.0 | 0.00 | 0.34 | 0.00 | 89 | 1015.8 |
| 20260906100101 | 64 | 57 | 2.0 | 4.0 | 0.00 | 0.34 | 0.00 | 90 | 1015.6 |
| 20260906094606 | 64 | 48 | 1.0 | 4.0 | 0.00 | 0.34 | 0.00 | 91 | 1015.8 |
| 20260906093059 | 64 | 63 | 1.0 | 4.0 | 0.00 | 0.34 | 0.00 | 91 | 1015.7 |
| 20260906091605 | 64 | 0 | 0.0 | 5.0 | 0.00 | 0.34 | 0.00 | 90 | 1015.7 |
| 20260906090104 | 64 | 0 | 0.0 | 4.0 | 0.00 | 0.34 | 0.00 | 89 | 1015.7 |
| 20260906084559 | 65 | 90 | 1.0 | 4.0 | 0.00 | 0.34 | 0.00 | 88 | 1015.5 |
| 20260906083059 | 65 | 37 | 1.0 | 6.0 | 0.00 | 0.34 | 0.00 | 88 | 1015.3 |
| 20260906081559 | 65 | 67 | 2.0 | 7.0 | 0.00 | 0.34 | 0.00 | 88 | 1015.3 |
| 20260906080054 | 65 | 57 | 2.0 | 7.0 | 0.00 | 0.34 | 0.00 | 89 | 1015.3 |
| 20260906074605 | 65 | 42 | 1.0 | 6.0 | 0.00 | 0.34 | 0.00 | 90 | 1015.4 |
| 20260906073057 | 65 | 40 | 2.0 | 6.0 | 0.00 | 0.34 | 0.00 | 90 | 1015.3 |
| 20260906071558 | 65 | 51 | 1.0 | 5.0 | 0.00 | 0.34 | 0.00 | 90 | 1015.3 |
| 20260906070101 | 66 | 51 | 2.0 | 7.0 | 0.00 | 0.34 | 0.00 | 90 | 1015.3 |
| 20260906064558 | 66 | 46 | 1.0 | 5.0 | 0.00 | 0.34 | 0.00 | 90 | 1015.3 |
| 20260906063100 | 67 | 79 | 2.0 | 6.0 | 0.00 | 0.34 | 0.00 | 90 | 1015.3 |
| 20260906061600 | 68 | 62 | 2.0 | 9.0 | 0.00 | 0.34 | 0.00 | 91 | 1015.3 |
| 20260906060058 | 69 | 15 | 4.0 | 9.0 | 0.00 | 0.34 | 0.00 | 93 | 1015.2 |
| 20260906054559 | 69 | 60 | 4.0 | 9.0 | 0.00 | 0.34 | 0.00 | 95 | 1015.1 |
| 20260906053109 | 70 | 48 | 1.0 | 7.0 | 0.00 | 0.34 | 0.00 | 95 | 1014.9 |
| 20260906051601 | 70 | 42 | 1.0 | 6.0 | 0.00 | 0.34 | 0.00 | 95 | 1014.9 |
| 20260906050057 | 71 | 69 | 2.0 | 8.0 | 0.00 | 0.34 | 0.00 | 95 | 1014.9 |
| 20260906044558 | 71 | 73 | 1.0 | 5.0 | 0.00 | 0.34 | 0.00 | 95 | 1014.7 |
| 20260906043102 | 71 | 60 | 3.0 | 9.0 | 0.00 | 0.34 | 0.00 | 96 | 1014.4 |
| 20260906041606 | 72 | 59 | 3.0 | 9.0 | 0.00 | 0.34 | 0.00 | 96 | 1014.3 |
| 20260906040112 | 72 | 57 | 2.0 | 6.0 | 0.00 | 0.34 | 0.00 | 96 | 1014.4 |
| 20260906034607 | 72 | 56 | 1.0 | 4.0 | 0.00 | 0.34 | 0.34 | 96 | 1014.3 |
| 20260906033111 | 72 | 56 | 1.0 | 5.0 | 0.00 | 0.34 | 0.34 | 96 | 1014.3 |
| 20260906031603 | 72 | 0 | 2.0 | 5.0 | 0.00 | 0.34 | 0.34 | 96 | 1014.3 |
| 20260906024600 | 73 | 49 | 3.0 | 8.0 | 0.00 | 0.34 | 0.34 | 96 | 1014.3 |
| 20260906023100 | 73 | 36 | 3.0 | 9.0 | 0.00 | 0.34 | 0.34 | 96 | 1014.3 |
| 20260906021605 | 73 | 67 | 2.0 | 6.0 | 0.00 | 0.34 | 0.34 | 96 | 1014.2 |
| 20260906020107 | 73 | 58 | 3.0 | 6.0 | 0.00 | 0.34 | 0.34 | 97 | 1014.0 |
| 20260906014604 | 72 | 59 | 1.0 | 5.0 | 0.00 | 0.34 | 0.34 | 97 | 1013.8 |
| 20260906013110 | 71 | 0 | 0.0 | 0.0 | 0.00 | 0.34 | 0.34 | 97 | 1013.7 |
| 20260906011607 | 70 | 0 | 0.0 | 0.0 | 0.00 | 0.34 | 0.34 | 97 | 1013.4 |
| 20260906004611 | 70 | 0 | 0.0 | 0.0 | 0.00 | 0.34 | 0.34 | 96 | 1013.1 |
| 20260906003106 | 71 | 0 | 0.0 | 0.0 | 0.00 | 0.34 | 0.34 | 96 | 1012.8 |
| 20260906001602 | 71 | 0 | 0.0 | 0.0 | 0.00 | 0.34 | 0.34 | 96 | 1012.6 |
| 20260905234604 | 71 | 0 | 0.0 | 1.0 | 0.06 | 0.34 | 0.34 | 96 | 1012.6 |
| 20260905233103 | 71 | 221 | 0.0 | 0.0 | 0.30 | 0.34 | 0.34 | 96 | 1012.4 |
| 20260905231600 | 71 | 0 | 0.0 | 3.0 | 0.34 | 0.34 | 0.34 | 95 | 1012.5 |
| 20260905224603 | 72 | 280 | 4.0 | 13.0 | 0.28 | 0.28 | 0.28 | 92 | 1014.2 |
| 20260905223100 | 77 | 79 | 1.0 | 9.0 | 0.03 | 0.03 | 0.03 | 86 | 1013.3 |
| 20260905221554 | 82 | 51 | 1.0 | 11.0 | 0.00 | 0.00 | 0.00 | 82 | 1012.7 |
| 20260905220106 | 85 | 59 | 2.0 | 8.0 | 0.00 | 0.00 | 0.00 | 78 | 1012.0 |
| 20260905214606 | 87 | 0 | 0.0 | 3.0 | 0.00 | 0.00 | 0.00 | 76 | 1011.9 |
| 20260905213111 | 88 | 0 | 0.0 | 4.0 | 0.00 | 0.00 | 0.00 | 74 | 1012.2 |
| 20260905211600 | 90 | 0 | 2.0 | 8.0 | 0.00 | 0.00 | 0.00 | 71 | 1011.7 |
| 20260905210123 | 91 | 281 | 2.0 | 8.0 | 0.00 | 0.00 | 0.00 | 68 | 1012.0 |
| 20260905204604 | 91 | 0 | 0.0 | 2.0 | 0.00 | 0.00 | 0.00 | 70 | 1012.3 |
| 20260905203058 | 90 | 268 | 4.0 | 9.0 | 0.00 | 0.00 | 0.00 | 68 | 1012.4 |
| 20260905201557 | 90 | 278 | 0.0 | 2.0 | 0.00 | 0.00 | 0.00 | 69 | 1012.5 |